[[{"header":{"parameterUnit":"m.s-1","parameterCategory":1,"la1":30.2991,"la2":30.254,"lo1":-89.0895,"lo2":-89.0444,"dy":0.0017,"dx":0.0017,"nx":28,"ny":28,"refTime":"2024-12-10T03:00:00:Z","depth":0,"parameterNumber":2,"parameterNumberName":"U-component_of_WINDS"},"data":[0,0,0,0,0,0,0,0,0,0,0,0,0,0,0,0,0,0,0,0,0,0,0,0,0,0,0,0,0,0,0,0,0,0,0,0,0,0,0,0,0,0,0,0,0,0,0,0,0,0,0,0,0,0,0,0,0,0,2.5587,2.5587,0,2.5638,2.5639,2.564,2.563,2.5629,2.5628,2.5627,2.568,2.5682,2.5685,0,0,0,0,0,0,0,0,0,0,0,0,0,2.5481,2.5483,2.5586,2.5587,2.5588,2.5638,2.5639,2.564,2.563,2.5629,2.5628,2.5627,2.5679,2.5682,2.5685,0,0,0,0,0,0,0,0,0,0,0,0,0,2.5529,2.5483,2.5586,2.5589,2.559,2.5638,2.5639,2.564,2.563,2.5629,2.5628,2.5626,2.5678,2.5682,2.5685,2.5734,0,0,2.5696,2.5697,0,0,0,0,0,0,0,0,2.5526,2.5533,2.5588,2.5589,2.559,2.5626,2.5621,2.5671,2.5631,2.5615,2.5627,2.5626,2.5663,2.5668,2.5681,2.5736,2.5739,2.5696,2.5698,2.5699,2.57,0,0,0,0,0,0,0,2.5523,2.5531,2.5607,2.5589,2.559,2.5588,2.5594,2.5631,2.5646,2.5616,2.5616,2.5622,2.5664,2.5677,2.5682,2.5739,2.5696,2.5699,2.5701,2.5702,2.584,2.5842,0,0,0,0,0,0,2.5519,2.5528,2.5605,2.5609,2.5554,2.5591,2.5597,2.5616,2.5646,2.5649,2.5623,2.5621,2.5672,2.5678,2.5684,2.5744,2.5699,2.5703,2.5705,2.5839,2.5841,2.5843,0,0,0,0,0,0,2.5516,2.5526,2.5603,2.5568,2.5578,2.5595,2.5616,2.5618,2.5632,2.5651,2.5654,2.5634,2.5671,2.5679,2.5722,2.5746,2.5704,2.5707,2.5837,2.5839,2.5842,2.5865,0,0,0,0,0,0,2.5513,2.5525,2.5543,2.5569,2.558,2.564,2.5617,2.562,2.5638,2.5636,2.5662,2.5665,2.5671,2.5717,2.5725,2.575,2.571,2.5835,2.5838,2.5841,2.5862,2.5868,2.5873,0,0,0,0,0,2.551,2.5547,2.5544,2.5553,2.5603,2.5642,2.5648,2.5654,2.5639,2.5658,2.5671,2.5664,2.5742,2.5722,2.5731,2.5757,2.5833,2.5837,2.5841,2.5859,2.5866,2.5872,0,0,0,0,0,0,2.5523,2.555,2.5547,2.5594,2.5616,2.564,2.5664,2.5661,2.5687,2.5684,2.569,2.5696,2.5741,2.5753,2.573,2.5807,2.5786,2.5791,2.5797,2.5804,2.5809,2.5805,2.5713,0,0,0,0,0,2.5531,2.556,2.5583,2.5622,2.5633,2.5647,2.5664,2.5667,2.5689,2.5698,2.5714,2.5737,2.5767,2.5786,2.5814,2.5864,2.587,2.5886,2.5892,2.5896,2.5901,2.593,2.5938,2.5855,2.5855,2.5854,0,0,2.5549,2.5567,2.5585,2.5625,2.5642,2.5673,2.5654,2.5687,2.571,2.5703,2.5745,2.5758,2.5784,2.5831,2.5853,2.5843,2.5926,2.5901,2.5904,2.5906,2.5935,2.5943,2.595,2.5857,2.5857,2.5856,0,0,2.5597,2.5613,2.5648,2.5667,2.5693,2.5702,2.5711,2.5737,2.5745,2.5788,2.5784,2.5812,2.5862,2.5881,2.5897,2.5955,2.595,2.5964,2.5992,2.602,2.6027,2.6033,2.6055,2.6062,2.5969,2.5969,2.5969,0,2.5615,2.5661,2.5667,2.5701,2.5719,2.5715,2.5752,2.5769,2.5803,2.5816,2.5805,2.587,2.5886,2.5939,2.5954,2.5966,2.5977,2.5961,2.6025,2.6031,2.6037,2.6058,2.6066,2.5971,2.597,2.597,2.597,0,2.5683,2.5715,2.574,2.5775,2.5796,2.5831,2.5843,2.5864,2.5865,2.5876,2.5921,2.5941,2.5974,2.5987,2.5988,2.6041,2.6034,2.6024,2.6003,2.6046,2.6066,2.6074,2.5973,2.5972,2.5972,2.5971,0,0,2.5739,2.5778,2.5787,2.5803,2.5834,2.5859,2.5894,2.5927,2.5946,2.597,2.6001,2.6045,2.6037,2.6055,2.6059,2.6084,2.6131,2.6071,2.6072,2.6083,2.6191,2.6199,2.6208,2.6128,2.6129,2.6131,2.6189,0,2.579,2.5853,2.586,2.5916,2.5947,2.5945,2.5976,2.5999,2.601,2.6039,2.6051,2.6083,2.6069,2.6081,2.6105,2.612,2.6153,2.6116,2.6157,2.6159,2.6151,2.6218,2.6226,2.628,2.6197,2.6198,2.6199,0,2.5858,2.5885,2.5945,2.5973,2.5986,2.6014,2.6046,2.6072,2.6099,2.6105,2.6128,2.6129,2.6167,2.6145,2.6198,2.6172,2.619,2.62,2.6203,2.6207,2.6182,2.6225,2.6297,2.6306,2.6211,2.621,2.6209,0,2.5894,2.5946,2.5989,2.6003,2.6036,2.6056,2.6071,2.6096,2.6116,2.6144,2.6158,2.619,2.6207,2.6233,2.6243,2.6226,2.6296,2.6274,2.6304,2.6304,2.6318,2.6317,2.6395,2.6329,2.6329,2.6329,2.6329,0,2.5951,2.5987,2.6006,2.6032,2.6074,2.6083,2.6124,2.6138,2.616,2.619,2.619,2.6218,2.623,2.626,2.6269,2.6312,2.632,2.6327,2.6329,2.6328,2.6327,2.6339,2.6336,2.6331,2.6331,2.633,2.633,0,2.5998,2.6012,2.6058,2.6087,2.6095,2.6125,2.6149,2.6175,2.6187,2.6225,2.6235,2.6254,2.6289,2.6303,2.6346,2.6352,2.6403,2.6401,2.6394,2.6394,2.6423,2.642,2.6512,2.6525,2.645,2.6451,2.6451,0,2.6033,2.6062,2.6094,2.6114,2.613,2.6162,2.6183,2.6194,2.6216,2.6249,2.6271,2.6307,2.6336,2.6394,2.6412,2.6446,2.6445,2.6475,2.645,2.6448,2.6447,2.6445,2.6449,2.648,2.648,2.6481,2.6482,0,2.6095,2.6101,2.6131,2.6164,2.619,2.6216,2.6242,2.6258,2.6273,2.6298,2.6335,2.6358,2.6403,2.6439,2.6474,2.649,2.6489,2.6489,2.6498,2.6497,2.6492,2.6496,2.6407,2.6487,2.6487,2.6486,2.6486,2.6486,2.6138,2.6164,2.6191,2.6225,2.6246,2.6271,2.6297,2.6313,2.6344,2.6382,2.6387,2.6427,2.6454,2.6501,2.6519,2.6551,2.6543,2.6556,2.6559,2.6562,2.6565,2.6487,2.6558,2.6558,2.6558,2.6557,2.6557,0,2.6201,2.6218,2.625,2.6287,2.6314,2.6311,2.634,2.6363,2.6398,2.6424,2.6454,2.6497,2.6533,2.6554,2.659,2.6612,2.6613,2.6621,2.662,2.6624,2.6569,2.6558,2.662,2.662,2.662,2.662,2.662,2.662,2.6236,2.628,2.629,2.6345,2.6363,2.6402,2.6419,2.6443,2.6463,2.6512,2.6542,2.6556,2.6581,2.6619,2.6652,2.6657,2.6671,2.6681,2.6686,2.6634,2.6627,2.6621,2.6611,2.6683,2.6683,2.6738,2.6738,2.6739]},{"header":{"parameterUnit":"m.s-1","parameterCategory":1,"la1":30.2991,"la2":30.254,"lo1":-89.0895,"lo2":-89.0444,"dy":0.0017,"dx":0.0017,"nx":28,"ny":28,"refTime":"2024-12-10T03:00:00:Z","depth":0,"parameterNumber":3,"parameterNumberName":"V-component_of_WINDS"},"data":[0,0,0,0,0,0,0,0,0,0,0,0,0,0,0,0,0,0,0,0,0,0,0,0,0,0,0,0,0,0,0,0,0,0,0,0,0,0,0,0,0,0,0,0,0,0,0,0,0,0,0,0,0,0,0,0,0,0,-6.2908,-6.291,0,-6.3054,-6.3056,-6.3057,-6.3052,-6.305,-6.3048,-6.3046,-6.3192,-6.3198,-6.3204,0,0,0,0,0,0,0,0,0,0,0,0,0,-6.2623,-6.2628,-6.2908,-6.291,-6.2912,-6.3054,-6.3056,-6.3058,-6.3053,-6.305,-6.3048,-6.3045,-6.319,-6.3197,-6.3204,0,0,0,0,0,0,0,0,0,0,0,0,0,-6.2755,-6.263,-6.2908,-6.2926,-6.2929,-6.3054,-6.3056,-6.3058,-6.3053,-6.305,-6.3047,-6.3044,-6.3188,-6.3197,-6.3205,-6.3319,0,0,-6.3232,-6.3235,0,0,0,0,0,0,0,0,-6.2748,-6.2766,-6.2922,-6.2925,-6.2929,-6.3032,-6.3009,-6.3146,-6.3054,-6.3006,-6.3046,-6.3043,-6.3141,-6.3153,-6.3187,-6.3326,-6.3332,-6.3232,-6.3238,-6.3241,-6.3244,0,0,0,0,0,0,0,-6.2739,-6.2759,-6.2966,-6.2924,-6.2928,-6.2927,-6.2942,-6.3035,-6.3089,-6.301,-6.301,-6.3028,-6.3142,-6.3179,-6.3191,-6.3334,-6.3232,-6.324,-6.3245,-6.3248,-6.3577,-6.3581,0,0,0,0,0,0,-6.2726,-6.2752,-6.2961,-6.297,-6.2829,-6.2934,-6.2952,-6.3002,-6.3088,-6.3098,-6.303,-6.3027,-6.3166,-6.3181,-6.3196,-6.3338,-6.3241,-6.3249,-6.3254,-6.3574,-6.3578,-6.3582,0,0,0,0,0,0,-6.272,-6.2745,-6.2955,-6.2861,-6.2888,-6.2943,-6.2999,-6.3006,-6.3043,-6.3103,-6.3112,-6.3058,-6.3164,-6.3184,-6.329,-6.3342,-6.3253,-6.3261,-6.357,-6.3575,-6.358,-6.362,0,0,0,0,0,0,-6.2712,-6.2742,-6.2786,-6.2862,-6.2893,-6.3047,-6.3002,-6.3011,-6.3058,-6.3056,-6.3131,-6.3141,-6.3163,-6.3277,-6.3298,-6.3353,-6.3268,-6.3565,-6.3572,-6.3578,-6.3614,-6.3626,-6.3636,0,0,0,0,0,-6.2701,-6.279,-6.2789,-6.2814,-6.2949,-6.305,-6.3067,-6.3092,-6.3063,-6.3108,-6.3147,-6.3138,-6.3333,-6.3288,-6.3312,-6.337,-6.3562,-6.357,-6.3578,-6.3609,-6.3624,-6.3636,0,0,0,0,0,0,-6.2717,-6.28,-6.2799,-6.2916,-6.2976,-6.3049,-6.3106,-6.3106,-6.3175,-6.3169,-6.3196,-6.3213,-6.332,-6.3355,-6.3303,-6.3486,-6.3444,-6.3457,-6.3459,-6.3474,-6.3484,-6.3474,-6.3275,0,0,0,0,0,-6.2735,-6.281,-6.2878,-6.2974,-6.3005,-6.3051,-6.3095,-6.311,-6.3172,-6.3197,-6.3244,-6.3305,-6.338,-6.3428,-6.35,-6.3619,-6.3637,-6.3671,-6.3682,-6.3691,-6.3702,-6.377,-6.3787,-6.3608,-6.3608,-6.3608,0,0,-6.277,-6.2825,-6.2871,-6.2979,-6.3027,-6.3105,-6.3072,-6.3154,-6.3213,-6.3209,-6.3313,-6.335,-6.3419,-6.3533,-6.3585,-6.3566,-6.3755,-6.3701,-6.3707,-6.3714,-6.378,-6.3797,-6.3812,-6.3613,-6.3612,-6.3612,0,0,-6.2876,-6.2924,-6.3011,-6.3061,-6.3136,-6.3166,-6.3187,-6.3261,-6.3286,-6.3391,-6.3391,-6.346,-6.3588,-6.3639,-6.3681,-6.381,-6.3805,-6.3832,-6.3889,-6.3955,-6.397,-6.3982,-6.403,-6.4046,-6.3843,-6.3843,-6.3843,0,-6.2911,-6.3029,-6.3055,-6.314,-6.3188,-6.3192,-6.328,-6.3327,-6.3421,-6.3454,-6.3431,-6.3594,-6.3641,-6.3768,-6.38,-6.3833,-6.3858,-6.3824,-6.3965,-6.3978,-6.3991,-6.4036,-6.4054,-6.3846,-6.3846,-6.3845,-6.3845,0,-6.3069,-6.3151,-6.3212,-6.3305,-6.336,-6.3446,-6.3486,-6.3538,-6.3549,-6.3582,-6.369,-6.3746,-6.3831,-6.3862,-6.3872,-6.3992,-6.3978,-6.396,-6.3918,-6.401,-6.4054,-6.4071,-6.385,-6.3849,-6.3848,-6.3847,0,0,-6.3187,-6.3296,-6.3318,-6.3362,-6.3446,-6.351,-6.3597,-6.3682,-6.3727,-6.3792,-6.3866,-6.3976,-6.3962,-6.401,-6.4025,-6.4083,-6.4184,-6.4059,-6.4061,-6.4082,-6.4322,-6.4336,-6.4355,-6.4182,-6.4185,-6.4188,-6.4317,0,-6.3302,-6.3458,-6.3486,-6.3622,-6.3699,-6.3704,-6.378,-6.384,-6.3874,-6.3944,-6.398,-6.4059,-6.4032,-6.4062,-6.4119,-6.416,-6.4233,-6.4151,-6.4252,-6.4255,-6.4235,-6.4378,-6.4392,-6.451,-6.4334,-6.4336,-6.4339,0,-6.3457,-6.353,-6.3674,-6.3751,-6.3784,-6.3852,-6.3934,-6.4,-6.4069,-6.4089,-6.4145,-6.4155,-6.4246,-6.42,-6.4326,-6.427,-6.4313,-6.4339,-6.4344,-6.4355,-6.4303,-6.4394,-6.4548,-6.4567,-6.4365,-6.4363,-6.4361,0,-6.3531,-6.3664,-6.3769,-6.3805,-6.3897,-6.3945,-6.3985,-6.4051,-6.4101,-6.4173,-6.4206,-6.4286,-6.433,-6.4392,-6.4424,-6.4387,-6.4548,-6.4504,-6.4568,-6.4568,-6.4602,-6.46,-6.4767,-6.4628,-6.4628,-6.4628,-6.4627,0,-6.3658,-6.3746,-6.3804,-6.3868,-6.3967,-6.3999,-6.4097,-6.4136,-6.4195,-6.4267,-6.4276,-6.4343,-6.438,-6.4453,-6.4478,-6.458,-6.4599,-6.4619,-6.4624,-6.4619,-6.4616,-6.4648,-6.4641,-6.4632,-6.4631,-6.463,-6.463,0,-6.3757,-6.3799,-6.3913,-6.3992,-6.4014,-6.4084,-6.4151,-6.4214,-6.4248,-6.434,-6.4363,-6.4416,-6.4503,-6.4541,-6.4646,-6.4663,-6.4781,-6.4779,-6.4758,-6.476,-6.4823,-6.4817,-6.5017,-6.5046,-6.4887,-6.4888,-6.4889,0,-6.3836,-6.3904,-6.3991,-6.4041,-6.4084,-6.4163,-6.4216,-6.425,-6.4304,-6.439,-6.4443,-6.453,-6.4602,-6.474,-6.4788,-6.4869,-6.4871,-6.4936,-6.4883,-6.4876,-6.4874,-6.487,-6.4878,-6.4945,-6.4947,-6.4948,-6.4949,0,-6.3971,-6.399,-6.4065,-6.415,-6.4213,-6.4281,-6.4347,-6.4387,-6.4431,-6.4492,-6.4582,-6.4638,-6.4748,-6.4835,-6.492,-6.4961,-6.4964,-6.4966,-6.4985,-6.498,-6.4966,-6.4977,-6.4786,-6.4961,-6.496,-6.4959,-6.4958,-6.4958,-6.4064,-6.4126,-6.4198,-6.4284,-6.4338,-6.44,-6.4464,-6.4508,-6.4584,-6.4677,-6.4693,-6.4789,-6.4858,-6.4973,-6.5018,-6.5094,-6.5078,-6.5105,-6.5113,-6.5119,-6.5124,-6.4953,-6.5109,-6.5109,-6.5108,-6.5108,-6.5108,0,-6.4201,-6.4249,-6.4327,-6.4421,-6.4489,-6.4487,-6.456,-6.4617,-6.4702,-6.4767,-6.4839,-6.4943,-6.5029,-6.5085,-6.5171,-6.5221,-6.5225,-6.5243,-6.524,-6.525,-6.5132,-6.5108,-6.5239,-6.5239,-6.5239,-6.5239,-6.5239,-6.5239,-6.4281,-6.4388,-6.4415,-6.4549,-6.4595,-6.4692,-6.4734,-6.4792,-6.4845,-6.4962,-6.5034,-6.507,-6.5132,-6.5224,-6.5302,-6.5317,-6.5349,-6.5368,-6.5382,-6.5271,-6.5258,-6.5245,-6.5222,-6.5374,-6.5375,-6.5493,-6.5494,-6.5495]}]]